Tracking 31027 objects as of 19-Jul-2025
HD Live streaming from Space Station
objects crossing your sky now

CZ-4 DEB

Track CZ-4 DEB now!
10-day predictions


NORAD ID: 20974
Int'l Code: 1990-081CG
Perigee: 778.9 km
Apogee: 796.9 km
Inclination: 98.5 °
Period: 100.5 minutes
Semi major axis: 7158 km
RCS: 0.0086 m2 (small)
Launch date: September 3, 1990
Source: People's Republic of China (PRC)
Launch site: Taiyaun Space Center, China (TSC)

Note: This is SATELLITE DEBRIS
Your satellite tracking list
SL-8 R/B
Track 1 satellite(s)




NASA's NSSDC Master Catalog

Two Line Element Set (TLE):
1 20974U 90081CG  25199.47119564  .00001129  00000-0  42556-3 0  9991
2 20974  98.5464 196.9068 0012589 245.1704 267.1266 14.33297116801924
Source of the keplerian elements: AFSPC